, CO

(GMT )
Cottonwood Pass

Weather History for K7BM - January, 2014

Change the Weather History Date:

Friday, January 3, 2014

  Actual Average Record
Temperature  
Mean Temperature - -  
Max Temperature - - - ()
Min Temperature - - - ()
Moisture  
Dew Point -    
Average Humidity    
Maximum Humidity    
Minimum Humidity    
Precipitation  
Precipitation 0.00 in - - ()
Sea Level Pressure  
Sea Level Pressure 29.95 in    
Wind  
Wind Speed 18 mph (WNW)    
Max Wind Speed 39 mph    
Max Gust Speed 64 mph    
Visibility 10 miles    
Events      
T = Trace of Precipitation, MM = Missing Value Source: NWS Daily Summary

Daily Weather History Graph

Daily Weather History Graph

Search for Another Location

Airport or City:

Trip Planner

Search our weather history database for the weather conditions in past years. The results will help you decide how hot, cold, wet, or windy it might be!

Date:

Astronomy

Jan. 03, 2014 Rise Set
Actual Time 7:23 AM MST 4:55 PM MST
Civil Twilight 6:53 AM MST 5:25 PM MST
Nautical Twilight 6:20 AM MST 5:58 PM MST
Astronomical Twilight 5:48 AM MST 6:30 PM MST
Moon 8:53 AM MST (1/3) 8:06 PM MST (1/3)
Length of Visible Light 10h 31m
Length of Day
9h 32m
Waxing Crescent, 8% of the Moon is Illuminated
Jan 3
Waxing Crescent
Jan 7
First Quarter
Jan 15
Full
Jan 23
Last Quarter
Jan 30
New

Hourly Weather History & Observations

Time (MST) Temp. Dew Point Humidity Pressure Visibility Wind Dir Wind Speed Gust Speed Precip Events Conditions
12:14 AM - - N/A% 30.14 in 10.0 mi NW 16.1 mph 33.4 mph N/A   Clear
12:34 AM - - N/A% 30.14 in 10.0 mi WNW 17.3 mph 32.2 mph N/A   Clear
12:54 AM - - N/A% 30.13 in 10.0 mi WNW 15.0 mph 38.0 mph N/A   Clear
1:14 AM - - N/A% 30.12 in 10.0 mi WNW 20.7 mph 41.4 mph N/A   Clear
1:34 AM - - N/A% 30.13 in 10.0 mi NW 17.3 mph 28.8 mph N/A   Clear
1:54 AM - - N/A% 30.12 in 10.0 mi NW 15.0 mph 31.1 mph N/A   Clear
2:14 AM - - N/A% 30.12 in 10.0 mi NW 15.0 mph 33.4 mph N/A   Clear
2:34 AM - - N/A% 30.12 in 10.0 mi WNW 12.7 mph 29.9 mph N/A   Clear
2:54 AM - - N/A% 30.11 in 10.0 mi NW 15.0 mph 26.5 mph N/A   Clear
3:14 AM - - N/A% 30.12 in 10.0 mi NW 10.4 mph 25.3 mph N/A   Clear
3:34 AM - - N/A% 30.12 in 10.0 mi NW 11.5 mph 20.7 mph N/A   Clear
3:54 AM - - N/A% 30.11 in 10.0 mi WNW 13.8 mph 23.0 mph N/A   Clear
4:14 AM - - N/A% 30.10 in 10.0 mi WNW 15.0 mph 21.9 mph N/A   Clear
4:34 AM - - N/A% 30.09 in 10.0 mi NNW 6.9 mph 19.6 mph N/A   Clear
4:54 AM - - N/A% 30.09 in 10.0 mi NNW 10.4 mph 16.1 mph N/A   Clear
5:14 AM - - N/A% 30.08 in 10.0 mi NNW 10.4 mph 20.7 mph N/A   Clear
5:34 AM - - N/A% 30.08 in 10.0 mi NNW 9.2 mph - N/A   Clear
5:54 AM - - N/A% 30.07 in 10.0 mi North 10.4 mph - N/A   Clear
6:14 AM - - N/A% 30.06 in 10.0 mi North 10.4 mph 17.3 mph N/A   Clear
6:34 AM - - N/A% 30.06 in 10.0 mi NNW 10.4 mph 19.6 mph N/A   Clear
6:54 AM - - N/A% 30.06 in 10.0 mi NNW 8.1 mph - N/A   Clear
7:14 AM - - N/A% 30.05 in 10.0 mi NW 11.5 mph 23.0 mph N/A   Clear
7:34 AM - - N/A% 30.05 in 10.0 mi North 8.1 mph - N/A   Clear
7:54 AM - - N/A% 30.04 in 10.0 mi North 3.5 mph - N/A   Clear
8:14 AM - - N/A% 30.04 in 10.0 mi NW 5.8 mph 25.3 mph N/A   Clear
8:34 AM - - N/A% 30.03 in 10.0 mi WNW 12.7 mph 28.8 mph N/A   Clear
8:53 AM - - N/A% 30.04 in 10.0 mi WNW 15.0 mph 28.8 mph N/A   Clear
9:13 AM - - N/A% 30.03 in 10.0 mi West 27.6 mph 35.7 mph N/A   Clear
9:34 AM - - N/A% 30.02 in 10.0 mi West 24.2 mph 49.5 mph N/A   Clear
9:53 AM - - N/A% 30.02 in 10.0 mi West 25.3 mph 40.3 mph N/A   Clear
10:14 AM - - N/A% 30.01 in 10.0 mi West 29.9 mph 48.3 mph N/A   Clear
10:34 AM - - N/A% 30.00 in 10.0 mi West 29.9 mph 57.5 mph N/A   Clear
10:54 AM - - N/A% 29.98 in 10.0 mi West 35.7 mph 55.2 mph N/A   Clear
11:14 AM - - N/A% 29.96 in 10.0 mi West 28.8 mph 47.2 mph N/A   Clear
11:34 AM - - N/A% 29.96 in 10.0 mi West 29.9 mph 43.7 mph N/A   Clear
11:54 AM - - N/A% 29.94 in 10.0 mi NW 19.6 mph 42.6 mph N/A   Clear
12:14 PM - - N/A% 29.93 in 10.0 mi West 28.8 mph 42.6 mph N/A   Clear
12:34 PM - - N/A% 29.92 in 10.0 mi West 25.3 mph 41.4 mph N/A   Clear
12:54 PM - - N/A% 29.91 in 10.0 mi WNW 21.9 mph 42.6 mph N/A   Clear
1:14 PM - - N/A% 29.90 in 10.0 mi WNW 16.1 mph 33.4 mph N/A   Clear
1:34 PM - - N/A% 29.89 in 10.0 mi West 24.2 mph 33.4 mph N/A   Clear
1:54 PM - - N/A% 29.90 in 10.0 mi West 15.0 mph 28.8 mph N/A   Clear
2:14 PM - - N/A% 29.88 in 10.0 mi West 18.4 mph 31.1 mph N/A   Clear
2:34 PM - - N/A% 29.88 in 10.0 mi WNW 15.0 mph 32.2 mph N/A   Clear
2:54 PM - - N/A% 29.87 in 10.0 mi West 20.7 mph 31.1 mph N/A   Clear
3:13 PM - - N/A% 29.86 in 10.0 mi West 13.8 mph 25.3 mph N/A   Clear
3:34 PM - - N/A% 29.86 in 10.0 mi WNW 9.2 mph 25.3 mph N/A   Clear
3:54 PM - - N/A% 29.86 in 10.0 mi West 8.1 mph 29.9 mph N/A   Clear
4:14 PM - - N/A% 29.85 in 10.0 mi West 15.0 mph 28.8 mph N/A   Clear
4:34 PM - - N/A% 29.84 in 10.0 mi West 23.0 mph 40.3 mph N/A   Clear
4:54 PM - - N/A% 29.82 in 10.0 mi West 25.3 mph 44.9 mph N/A   Clear
5:14 PM - - N/A% 29.82 in 10.0 mi West 34.5 mph 50.6 mph N/A   Clear
5:34 PM - - N/A% 29.82 in 10.0 mi West 29.9 mph 52.9 mph N/A   Clear
5:54 PM - - N/A% 29.80 in 10.0 mi West 28.8 mph 46.0 mph N/A   Clear
6:14 PM - - N/A% 29.78 in 10.0 mi West 33.4 mph 51.8 mph N/A   Clear
6:33 PM - - N/A% 29.77 in 10.0 mi West 36.8 mph 62.1 mph N/A   Clear
6:54 PM - - N/A% 29.78 in 10.0 mi West 36.8 mph 64.4 mph N/A   Clear
7:14 PM - - N/A% 29.78 in 10.0 mi West 39.1 mph 54.1 mph N/A   Clear
7:34 PM - - N/A% 29.78 in 10.0 mi West 36.8 mph 51.8 mph N/A   Clear
7:53 PM - - N/A% 29.78 in 10.0 mi West 34.5 mph 49.5 mph N/A   Clear
8:14 PM - - N/A% 29.79 in 10.0 mi West 31.1 mph 48.3 mph N/A   Clear
8:34 PM - - N/A% 29.81 in 10.0 mi WNW 26.5 mph 43.7 mph N/A   Scattered Clouds
8:53 PM - - N/A% 29.81 in 10.0 mi WNW 19.6 mph 41.4 mph N/A   Clear
9:14 PM - - N/A% 29.81 in 10.0 mi NW 11.5 mph 29.9 mph N/A   Clear
9:34 PM - - N/A% 29.81 in 10.0 mi NW 12.7 mph 39.1 mph N/A   Clear
9:54 PM - - N/A% 29.81 in 10.0 mi WNW 9.2 mph 32.2 mph N/A   Clear
10:14 PM - - N/A% 29.80 in 10.0 mi WNW 15.0 mph 31.1 mph N/A   Scattered Clouds
10:34 PM - - N/A% 29.80 in 10.0 mi WNW 11.5 mph 28.8 mph N/A   Mostly Cloudy
10:54 PM - - N/A% 29.80 in 10.0 mi North 8.1 mph 27.6 mph N/A   Mostly Cloudy
11:14 PM - - N/A% 29.80 in 10.0 mi West 15.0 mph 24.2 mph N/A   Mostly Cloudy
11:33 PM - - N/A% 29.79 in 10.0 mi West 18.4 mph 36.8 mph N/A   Mostly Cloudy
11:54 PM - - N/A% 29.78 in 10.0 mi West 27.6 mph 44.9 mph N/A   Clear